Istrana, Italy

4:51 AM CEST on June 23, 2017 (GMT +0200)
Istrana Mil

Weather History for LIPS - May, 2013

Change the Weather History Date:

Friday, May 24, 2013

  Actual Average Record
Temperature  
Mean Temperature 50 °F -  
Max Temperature 52 °F 78 °F 90 °F (2012)
Min Temperature 48 °F 58 °F 46 °F (2004)
Degree Days  
Heating Degree Days 15    
Moisture  
Dew Point 48 °F    
Average Humidity 87    
Maximum Humidity 94    
Minimum Humidity 69    
Precipitation  
Precipitation 0.43 in 0.14 in - ()
Sea Level Pressure  
Sea Level Pressure 29.66 in    
Wind  
Wind Speed 11 mph ()    
Max Wind Speed 23 mph    
Max Gust Speed -    
Visibility 7.0 miles    
Events Rain , Thunderstorm    
Averages and records for this station are not official NWS values.
T = Trace of Precipitation, MM = Missing Value Source: Averaged Metar Reports

Daily Weather History Graph

Daily Weather History Graph

Search for Another Location

Airport or City:

Trip Planner

Search our weather history database for the weather conditions in past years. The results will help you decide how hot, cold, wet, or windy it might be!

Date:

Astronomy

May. 24, 2013 Rise Set
Actual Time 5:31 AM CEST 8:46 PM CEST
Civil Twilight 4:55 AM CEST 9:22 PM CEST
Nautical Twilight 4:08 AM CEST 10:09 PM CEST
Astronomical Twilight 3:10 AM CEST 11:07 PM CEST
Moon 8:06 PM CEST (5/24) 4:52 AM CEST (5/24)
Length of Visible Light 16h 26m
Length of Day
15h 14m
Waxing Gibbous, 99% of the Moon is Illuminated
May 24
Waxing Gibbous
May 25
Full
May 31
Last Quarter
Jun 8
New
Jun 16
First Quarter

Hourly Weather History & Observations

Time (CEST) Temp. Dew Point Humidity Pressure Visibility Wind Dir Wind Speed Gust Speed Precip Events Conditions
12:55 AM 55.4 °F 53.6 °F 94% 29.62 in - North - - N/A   Mostly Cloudy
1:55 AM 53.6 °F 51.8 °F 94% 29.62 in - North - - N/A Rain Rain
2:00 AM 54 °F 52 °F 92% 29.65 in 6 mi NNW 11.5 mph - - Rain Light Rain
2:55 AM 53.6 °F 51.8 °F 94% 29.62 in - North - - N/A Rain Rain
3:55 AM 53.6 °F 51.8 °F 94% 29.62 in - North - - N/A Rain Light Rain
4:55 AM 51.8 °F 50.0 °F 94% 29.62 in - North - - N/A Rain Light Rain
5:00 AM 53 °F 51 °F 88% 29.65 in 6 mi North 10.4 mph - - Rain Light Rain
5:55 AM 51.8 °F 50.0 °F 94% 29.59 in - North - - N/A Rain Light Rain
6:55 AM 50.0 °F 46.4 °F 87% 29.59 in - North - - N/A Rain Light Rain
7:55 AM 50.0 °F 44.6 °F 82% 29.59 in - North - - N/A   Mostly Cloudy
8:00 AM 50 °F 44 °F 75% 29.61 in 12 mi NE 23.0 mph - - Rain Light Rain
8:55 AM 50.0 °F 44.6 °F 82% 29.59 in - North - - N/A   Mostly Cloudy
9:55 AM 50.0 °F 46.4 °F 87% 29.59 in - North - - N/A Rain Rain
11:00 AM 51 °F 44 °F 69% 29.63 in 7 mi NNE 23.0 mph - - Rain Light Rain
1:55 PM 50.0 °F 46.4 °F 87% 29.65 in - North - - N/A Rain Light Rain
2:00 PM 50 °F 46 °F 82% 29.67 in 5 mi ENE 17.3 mph - - Rain Light Rain
2:55 PM 48.2 °F 46.4 °F 93% 29.65 in - North - - N/A Rain Light Rain
3:55 PM 50.0 °F 48.2 °F 94% 29.68 in - North - - N/A   Mostly Cloudy
4:55 PM 51.8 °F 46.4 °F 82% 29.68 in - North - - N/A   Mostly Cloudy
5:00 PM 52 °F 47 °F 76% 29.70 in 8 mi NNE 17.3 mph - -   Partly Cloudy
5:55 PM 51.8 °F 46.4 °F 82% 29.68 in - North - - N/A   Mostly Cloudy
6:41 PM 51.8 °F 46.4 °F 82% 29.68 in - North - - N/A Rain , Thunderstorm Light Thunderstorms and Rain
6:55 PM 51.8 °F 46.4 °F 82% 29.68 in - North - - N/A Rain , Thunderstorm Light Thunderstorms and Rain
8:00 PM 50 °F 47 °F 88% 29.72 in 6 mi ENE 5.8 mph - - Rain , Thunderstorm Thunderstorms and Rain
8:55 PM 48.2 °F 46.4 °F 93% 29.71 in - North - - N/A Rain Rain
9:55 PM 48.2 °F 46.4 °F 93% 29.71 in - North - - N/A   Mostly Cloudy
10:55 PM 48.2 °F 46.4 °F 93% 29.74 in - North - - N/A Rain Light Rain
11:00 PM 49 °F 46 °F 83% 29.75 in 6 mi NNW 5.8 mph - - Rain Light Rain
11:55 PM 48.2 °F 44.6 °F 87% 29.74 in - North - - N/A   Partly Cloudy